Regional Weather Roundup
Issued by NWS

Home | Current Version | Previous Version | Graphics & Text | Print | Product List | Glossary On
Versions: 1 2 3 4 5 6 7 8 9 10 11 12 13 14 15 16 17 18 19 20 21 22 23 24 25 26 27 28 29 30 31 32 33 34 35 36 37 38 39 40 41 42 43 44 45 46 47 48 49 50
198
ASUS43 KFSD 202110
RWRSD

WEATHER ROUNDUP FOR SOUTH DAKOTA
NATIONAL WEATHER SERVICE SIOUX FALLS SD
400 PM CDT WED SEP 20 2017

NOTE: "FAIR" INDICATES FEW OR NO CLOUDS BELOW 12,000 FEET WITH NO
SIGNIFICANT WEATHER AND/OR OBSTRUCTIONS TO VISIBILITY.


SDZ001>005-009-010-012>017-202200-
NORTHWEST AND NORTH CENTRAL SOUTH DAKOTA

CITY           SKY/WX    TMP DP  RH WIND       PRES   REMARKS
BUFFALO          N/A     70  22  16 SW28G35   29.63F
FAITH            N/A     71  26  18 SW16      29.73F
MOBRIDGE       SUNNY     73  39  29 S14       29.72F
$$

SDZ012>016-024>037-041>051-057-063-072>074-202200-
SOUTHWEST AND SOUTH CENTRAL SOUTH DAKOTA

CITY           SKY/WX    TMP DP  RH WIND       PRES   REMARKS
RAPID CTY ARPT SUNNY     72  23  16 W13       29.75F
PIERRE         SUNNY     74  29  19 W9        29.75F
CUSTER         SUNNY     60  22  23 W23G33    29.82F
ELLSWORTH AFB  SUNNY     72  23  16 SW17G26   29.74F
PHILIP         SUNNY     75  24  15 SW20G28   29.75F
SPEARFISH      FAIR      66  25  20 SW25G32   29.74F
WINNER         FAIR      76  32  20 W14       29.81F
$$

SDZ004>011-016>023-039-040-202200-
NORTHEAST SOUTH DAKOTA

CITY           SKY/WX    TMP DP  RH WIND       PRES   REMARKS
ABERDEEN       SUNNY     73  37  27 SW15G21   29.78F
WATERTOWN      SUNNY     69  40  34 SW8       29.83S
BROOKINGS      SUNNY     70  38  31 W5        29.86S
SISSETON         N/A     72  43  35 SW10      29.80S
$$

SDZ017-020-022-023-036>040-048>070-202200-
SOUTHEAST SOUTH DAKOTA

CITY           SKY/WX    TMP DP  RH WIND       PRES   REMARKS
SIOUX FALLS    SUNNY     71  48  43 VRB3      29.86F
HURON          SUNNY     73  39  29 SW9G20    29.80F
CHAMBERLAIN    SUNNY     78  32  18 SW12      29.79F
MITCHELL       SUNNY     74  39  28 S7        29.83F
YANKTON        SUNNY     73  48  41 W5        29.86F
$$

ABBREVIATIONS USED IN REMARKS
   TC - TEMPERATURE IN CELSIUS
  WCI - WIND CHILL INDEX
   HX - HEAT INDEX
  VSB - VISIBILITY





USA.gov is the U.S. government's official web portal to all federal, state and local government web resources and services.